Theta_e
327 325 325 326 326 322 312 308 294 298 298 292 291 290 290 296 296 296 297 299 298 302 303 302 302 304 302 299 300 301 301 300 298 292 292 304 320 323 326 328 336 338 338 340 343 345 346 346 350 351 352 352 351 351 351 351 351 350 349 350 350 349 350 350 349 349 348 348 349 349 349 349 348 348 348 348 348 348 348 348 348 348 349 349 348 348 348 348 346 345 344 343 342 341 340 339 339
322 320 321 322 318 311 302 305 295 291 292 290 290 291 294 295 295 296 296 298 299 302 302 301 301 303 303 303 300 303 301 304 302 303 312 323 322 325 328 329 337 337 338 340 343 344 345 345 348 351 352 351 351 351 352 351 350 350 349 350 349 349 349 349 349 349 349 348 349 349 348 348 348 348 348 347 347 347 347 347 347 347 347 348 348 347 346 346 345 344 343 342 340 339 338 338 337
321 320 322 318 315 311 307 302 293 290 288 285 287 292 294 293 294 297 299 300 301 301 302 302 304 304 304 303 302 300 298 305 310 315 317 323 319 321 329 328 336 338 338 340 343 344 344 344 345 351 352 352 351 351 352 351 350 350 350 349 349 350 348 349 349 349 348 349 349 349 349 348 347 346 347 347 347 347 347 346 347 347 347 346 347 347 347 345 343 342 342 340 338 337 337 336 336
325 323 322 312 305 307 300 297 292 292 290 288 288 292 294 294 296 298 300 301 300 300 302 303 303 305 303 299 301 304 301 305 306 314 313 318 315 318 328 328 331 340 339 340 342 343 343 344 345 350 351 352 351 351 351 351 351 350 349 349 349 348 349 349 349 349 349 349 349 348 348 348 347 348 348 347 347 347 347 347 346 346 347 346 347 347 345 344 342 341 341 339 337 335 335 334 334
321 324 322 312 306 300 301 297 293 289 288 287 288 294 296 297 298 299 300 300 301 300 302 303 300 304 305 304 304 300 301 307 308 316 318 319 324 328 328 328 330 339 339 340 341 343 343 342 345 348 351 351 351 351 352 351 351 350 349 349 349 348 349 349 349 349 349 348 349 348 349 348 348 348 347 347 346 347 346 345 345 345 345 345 346 344 342 341 340 339 339 338 337 334 333 332 332
323 320 320 311 303 305 299 293 289 289 292 292 290 292 294 297 299 300 299 300 302 300 301 301 301 302 302 304 304 300 305 304 309 317 319 319 326 331 328 327 327 337 339 339 340 342 342 341 344 348 351 351 351 351 352 351 350 350 350 349 348 349 349 349 349 349 348 349 348 348 349 348 348 348 347 346 346 345 344 343 343 343 342 343 343 341 341 339 337 337 337 335 335 333 331 331 330
315 313 311 306 305 301 293 289 288 290 292 295 293 294 296 298 299 298 298 301 303 302 303 303 302 301 299 303 306 307 312 312 309 316 321 321 327 329 328 326 325 333 338 338 339 341 341 341 346 349 350 350 351 351 351 351 351 350 350 349 349 348 349 349 349 349 349 348 348 348 348 348 347 347 346 345 344 343 343 342 341 341 340 340 339 339 338 338 336 335 334 334 333 331 329 329 328
318 308 308 297 297 295 292 289 290 290 294 296 296 296 298 299 299 300 298 300 299 300 302 303 302 300 299 303 300 304 315 322 319 321 323 326 327 328 327 325 323 330 335 337 339 339 339 341 345 348 350 350 350 351 351 351 350 350 350 349 349 349 348 348 349 349 348 348 349 349 348 348 347 347 346 344 343 343 342 342 341 340 339 339 338 337 336 335 335 334 333 333 331 329 327 327 326
313 310 306 296 294 295 292 293 293 296 295 297 297 301 305 299 300 299 299 299 300 301 301 302 301 297 297 300 300 304 312 319 321 323 324 325 327 327 328 323 321 329 333 335 338 339 340 340 343 347 348 350 350 351 351 351 351 350 350 349 348 348 348 348 348 349 349 348 349 348 348 347 347 346 345 344 343 342 341 341 340 339 339 338 338 336 335 334 334 334 333 332 329 327 326 324 324
308 303 298 297 296 293 290 290 293 293 295 297 297 298 300 300 299 300 300 299 300 300 301 302 300 300 300 300 300 306 311 315 319 321 323 326 327 327 325 321 321 328 333 333 338 339 339 337 341 344 346 349 350 351 351 350 351 351 350 350 349 348 348 348 349 350 350 349 349 348 348 347 347 345 344 343 342 341 340 340 339 339 338 338 338 337 335 334 334 333 331 329 328 325 324 323 322
302 304 302 292 289 289 290 289 290 292 293 296 298 300 300 300 300 300 299 300 300 300 302 302 301 299 301 299 300 309 314 313 315 318 321 326 325 325 324 324 322 330 332 333 337 338 337 339 337 341 343 345 347 349 350 349 350 350 350 349 349 349 349 349 349 350 349 349 349 348 347 346 346 344 344 342 341 340 339 338 338 339 337 333 332 332 332 332 331 330 329 328 325 324 324 323 322
300 301 300 292 290 290 288 290 292 292 295 294 298 300 300 301 300 299 298 298 298 297 300 302 301 302 299 300 300 309 312 312 312 313 316 324 325 324 324 324 324 329 331 335 336 336 337 338 338 338 339 342 342 345 346 347 348 348 349 349 349 348 348 349 349 348 348 348 348 348 347 346 345 344 343 341 340 339 338 336 335 334 333 332 332 332 332 330 329 329 328 326 324 323 323 322 321
303 299 293 292 289 292 290 290 291 295 291 294 297 300 299 299 299 299 298 297 295 297 300 302 305 302 298 300 304 309 310 315 316 315 318 321 323 322 323 325 325 328 330 335 336 335 336 337 338 339 338 336 337 339 341 343 344 346 347 348 348 347 347 348 348 347 347 347 347 347 346 345 344 344 342 339 338 337 336 335 334 334 333 333 332 332 331 330 329 328 326 324 323 323 322 321 320
304 304 298 292 290 292 291 290 290 293 288 295 298 300 300 298 299 299 298 298 295 299 303 303 304 302 298 300 297 304 305 312 315 316 316 316 321 321 323 324 324 326 329 334 335 336 336 337 337 338 338 338 339 337 335 338 341 343 344 345 344 345 345 346 346 345 345 345 344 343 342 340 341 341 339 339 338 337 336 335 335 333 333 332 332 331 331 329 328 327 325 324 323 322 321 320 319
302 303 296 294 290 289 290 293 291 290 293 294 299 299 299 301 300 298 300 298 297 301 305 305 304 300 294 298 293 304 307 312 314 315 318 320 321 322 322 323 324 323 325 331 334 335 336 336 337 337 337 338 338 340 341 339 336 338 340 341 341 342 343 342 342 342 341 341 341 338 336 334 334 334 334 334 336 333 333 330 332 334 333 332 331 331 330 329 327 326 325 324 323 321 320 319 317
305 301 296 292 289 290 292 292 293 291 292 296 299 298 298 300 300 300 299 300 300 303 303 299 304 300 299 300 300 301 307 313 314 317 318 318 319 320 320 322 323 323 322 326 330 334 335 336 336 336 337 338 338 340 340 340 334 333 337 339 339 340 339 339 339 339 335 333 332 330 328 329 329 329 326 329 329 331 328 325 329 334 332 332 331 330 329 328 326 325 324 323 322 320 318 315 314
304 298 291 289 289 291 291 294 293 289 294 294 298 300 296 297 299 304 302 302 301 300 300 300 302 304 301 303 305 306 311 314 316 316 316 315 315 316 318 318 320 321 324 323 327 329 332 335 335 336 336 337 339 340 341 339 336 331 333 333 333 335 335 335 335 331 326 325 324 322 322 326 325 325 325 325 322 324 320 322 327 332 331 332 332 330 329 328 327 325 324 322 321 319 315 314 313
300 295 289 288 289 292 293 296 297 297 296 296 297 297 296 294 296 299 301 301 300 299 299 299 301 302 303 305 306 311 312 314 315 315 313 312 313 313 314 315 315 322 322 323 325 327 329 332 334 335 335 336 338 340 341 340 337 333 336 335 334 333 331 328 330 331 325 325 321 322 324 322 322 322 322 322 321 321 320 321 323 328 331 331 330 330 329 327 326 325 324 322 320 315 310 298 300
297 294 292 289 290 294 297 297 296 295 295 296 296 295 296 296 297 298 297 295 296 297 299 299 299 299 301 301 305 310 312 312 313 313 313 311 313 315 316 316 317 315 319 321 324 326 328 329 332 334 335 336 336 338 339 340 338 334 334 334 333 330 329 328 329 326 324 323 321 322 321 321 321 320 320 320 320 319 320 319 322 325 329 329 328 329 329 327 325 325 324 321 316 311 301 295 294
299 296 290 291 294 296 299 298 298 297 297 297 297 298 297 298 298 300 297 294 294 295 297 297 298 300 299 299 308 308 310 311 312 312 312 311 313 313 313 314 316 317 321 322 324 327 326 327 328 333 334 335 336 336 337 338 338 335 334 333 331 331 331 330 329 326 324 322 321 321 321 321 321 320 320 318 320 318 318 318 320 321 323 323 322 323 326 326 325 324 323 319 313 303 296 295 293
300 296 292 293 296 296 297 298 300 299 299 298 297 296 297 298 298 299 296 294 295 297 299 299 300 301 301 299 301 306 307 307 310 310 310 310 311 312 312 314 316 318 320 322 321 325 326 327 328 329 332 334 335 335 334 334 334 334 333 332 330 329 329 329 328 327 324 322 321 321 321 320 321 320 319 319 318 317 315 316 317 318 318 316 318 314 315 317 316 314 313 307 300 300 296 294 294
300 298 298 298 297 296 300 299 299 298 298 298 296 296 297 299 299 298 297 294 295 297 300 300 301 302 301 302 302 304 305 306 306 308 308 308 309 311 312 311 314 316 317 319 321 323 325 327 328 329 328 332 334 334 334 332 331 332 331 331 330 328 328 327 327 326 324 323 321 321 320 320 320 318 318 317 317 316 315 313 314 313 312 314 315 313 312 310 308 308 305 301 299 297 296 295 295
295 297 297 298 298 297 299 299 298 297 297 297 296 298 299 298 298 298 297 297 300 302 301 302 302 303 304 302 302 302 301 301 304 305 307 307 307 308 310 312 311 314 315 318 321 323 324 326 327 328 328 328 332 333 333 330 329 331 331 330 329 327 326 325 325 325 325 323 321 320 320 319 319 317 317 316 316 316 315 314 313 313 313 313 313 313 311 309 307 305 302 300 297 295 295 295 295
299 295 297 300 299 298 300 300 296 295 298 297 299 298 297 297 296 299 296 300 301 302 302 302 303 303 303 302 301 301 302 303 302 303 306 308 308 308 308 310 311 311 314 317 320 322 322 325 326 327 328 328 328 330 331 331 328 328 328 326 328 326 325 325 324 324 324 323 321 321 320 320 319 316 316 316 315 315 315 314 314 312 312 312 311 312 310 306 305 303 302 298 296 295 295 295 296
295 293 295 298 298 299 297 295 296 296 297 298 297 297 298 297 298 298 299 301 303 303 303 302 302 302 301 300 301 301 301 302 302 302 304 306 307 309 308 308 308 307 311 316 319 321 322 324 326 327 328 328 328 327 329 330 328 327 326 326 327 323 325 325 324 323 322 322 322 321 319 319 318 317 316 316 314 314 314 314 314 313 312 311 310 309 310 307 304 301 300 300 295 294 295 295 295
295 295 296 295 296 296 296 297 298 298 299 298 295 295 296 297 298 297 300 302 303 303 301 301 301 300 300 301 301 301 301 301 302 301 302 304 306 306 307 308 307 306 309 314 316 320 322 324 325 326 327 328 328 327 327 326 327 325 326 326 326 323 325 324 323 323 322 322 321 320 320 320 318 317 316 314 315 313 313 314 314 313 312 311 310 309 307 308 303 298 297 297 295 295 295 295 295
297 295 295 294 295 295 297 296 298 299 297 297 295 295 295 296 298 294 298 300 301 299 299 299 297 298 299 299 300 299 298 299 299 300 301 303 304 305 306 307 307 308 307 309 316 319 320 323 324 326 327 325 327 327 326 326 324 325 324 324 324 324 323 322 322 323 322 321 321 320 319 318 318 316 315 315 314 313 312 313 313 312 311 310 310 308 306 307 302 299 296 295 295 294 294 294 293
296 296 294 295 296 296 297 297 297 297 295 296 295 295 296 294 296 296 299 301 300 298 299 300 299 299 299 298 299 299 299 299 299 299 301 300 301 304 304 305 308 308 307 307 313 317 318 322 323 324 326 326 325 326 325 326 324 324 323 323 322 322 321 321 321 321 320 321 320 319 318 318 317 316 315 314 314 311 311 312 312 311 311 309 310 308 304 303 300 297 296 295 294 294 294 293 292
296 295 292 293 294 294 297 295 297 296 295 296 295 294 292 294 292 298 300 301 299 298 299 299 299 299 298 297 297 297 298 299 298 298 299 300 301 303 304 306 308 308 309 309 308 312 315 319 322 323 325 324 324 325 325 325 324 322 321 322 322 321 320 320 320 320 320 320 319 319 318 317 316 315 313 314 312 311 310 311 310 311 310 309 308 306 303 300 297 295 295 295 293 293 293 292 294
296 294 292 292 291 290 296 297 296 295 294 295 296 285 286 293 296 298 299 297 297 296 296 297 298 299 298 298 297 297 299 299 300 302 302 302 303 303 302 304 306 307 307 307 307 309 314 316 320 321 322 323 323 324 323 322 321 319 319 320 319 320 319 318 317 319 318 318 318 318 317 316 315 314 313 311 311 310 310 310 310 309 308 307 306 303 301 297 296 294 294 293 295 293 292 292 291
291 292 292 287 286 285 294 295 294 294 295 295 297 287 285 291 293 297 298 297 297 299 299 299 300 300 298 298 297 297 299 302 302 303 303 304 303 303 303 303 302 302 304 307 308 307 310 314 318 320 318 319 318 319 320 320 317 319 317 318 319 317 318 317 315 317 315 316 317 316 316 315 313 312 311 311 310 310 309 309 308 308 306 304 303 300 299 295 295 294 293 293 292 291 291 292 291
290 288 283 285 286 286 293 298 295 294 295 294 294 287 288 292 294 297 298 298 298 297 298 299 299 298 298 298 297 298 300 302 302 303 303 303 303 303 303 302 302 302 302 304 308 307 309 311 313 313 313 314 315 316 315 316 317 315 315 316 318 315 315 317 314 316 316 313 314 316 314 313 312 310 309 310 309 308 309 309 308 305 303 302 301 297 297 295 294 294 294 293 292 290 291 291 291
289 288 283 286 285 287 291 295 295 295 292 294 293 288 288 290 294 296 297 297 296 296 297 298 298 298 298 297 299 300 300 300 301 301 301 302 302 302 302 302 302 303 303 303 304 307 310 311 311 312 312 312 313 313 312 313 315 314 314 316 315 314 315 315 315 315 315 314 312 312 312 312 311 308 307 308 309 308 307 308 305 304 301 300 298 296 295 294 294 294 293 293 293 291 291 290 290
285 288 285 287 287 287 288 293 296 294 295 291 292 289 289 292 291 296 298 298 297 296 296 296 296 297 296 298 299 299 298 298 298 299 300 301 301 302 302 302 302 302 303 303 303 305 308 309 309 310 311 311 311 312 312 312 313 313 312 312 313 314 312 313 313 314 313 311 310 310 311 311 310 308 306 306 306 307 306 305 303 302 300 298 297 295 295 293 293 294 292 291 291 291 290 290 290
284 286 286 288 289 289 290 289 292 297 295 294 293 291 290 292 294 295 296 297 297 297 296 296 297 295 297 299 298 298 297 296 297 298 299 300 300 301 301 301 301 302 302 303 303 303 305 307 308 308 309 311 312 312 312 313 313 312 311 312 312 311 311 310 312 311 311 311 310 309 310 310 310 308 306 305 306 304 303 302 303 300 299 297 296 295 293 292 293 293 293 291 290 291 291 290 290
289 290 289 288 286 288 290 293 295 296 293 293 291 291 292 293 294 296 299 299 296 296 295 296 295 297 298 298 297 297 296 296 297 297 298 299 299 299 300 300 300 301 301 302 302 303 303 303 305 305 306 308 311 312 312 311 311 309 310 310 310 309 309 309 309 308 308 309 308 308 309 310 308 308 306 304 304 303 302 301 302 299 298 296 296 294 293 292 292 292 292 291 290 288 289 289 290
291 290 289 288 288 289 291 293 295 295 292 290 292 290 289 291 293 296 298 298 296 295 295 294 296 297 297 296 296 296 295 295 296 296 297 297 297 298 299 299 299 299 299 300 301 301 302 302 301 301 303 305 308 310 309 308 308 306 305 306 305 306 306 306 309 308 307 307 305 306 306 308 307 307 306 303 303 302 302 299 300 298 297 296 296 296 294 293 293 292 291 290 290 289 288 288 290
290 290 288 288 288 289 292 293 296 294 292 287 288 289 291 292 294 297 299 296 296 294 293 295 295 296 296 295 294 294 295 295 296 295 296 296 296 297 297 297 297 296 297 298 298 299 300 301 300 300 301 302 302 304 306 307 306 305 306 305 304 304 305 305 306 307 306 306 304 304 305 304 304 305 305 303 302 301 300 298 298 299 297 296 296 295 293 292 290 290 289 288 289 290 289 289 291
291 290 288 287 288 289 292 293 294 293 292 288 287 289 290 293 295 297 296 295 294 296 296 295 295 294 295 294 294 293 293 293 294 294 294 294 295 295 296 296 296 296 296 296 297 298 298 299 300 300 300 300 300 301 303 304 304 304 304 302 302 302 302 303 303 304 305 305 303 303 303 303 303 303 302 302 303 300 300 298 297 297 297 296 294 293 292 291 291 291 289 290 287 287 288 289 290
290 289 286 287 289 288 284 288 291 293 292 289 289 289 290 292 295 295 296 295 294 296 296 295 295 294 293 293 293 293 292 292 292 292 293 293 294 294 295 295 295 295 295 295 296 296 297 297 298 298 299 299 300 300 300 301 302 301 301 301 301 302 301 300 301 301 301 303 302 300 300 301 301 301 301 300 301 300 299 298 296 295 296 295 295 294 292 292 291 290 290 290 289 288 288 289 290
288 290 288 288 288 289 288 288 291 291 291 291 288 288 286 290 292 292 292 294 295 294 295 295 295 295 294 294 293 293 292 292 291 292 292 292 292 292 293 294 295 294 295 294 295 295 296 296 296 297 298 298 299 299 299 299 301 301 301 301 299 297 296 298 297 296 296 297 300 301 301 299 300 299 299 299 299 299 297 297 295 295 295 294 294 294 293 293 291 291 291 290 289 290 288 287 289
287 289 292 291 291 290 289 289 288 284 283 286 288 280 278 286 290 290 292 291 292 292 292 292 293 293 293 292 292 292 292 292 291 291 291 291 291 292 292 293 293 294 294 295 295 295 295 295 296 296 297 297 297 298 298 298 298 297 297 297 295 294 294 295 295 296 297 297 299 297 298 298 298 298 297 298 297 297 297 297 295 294 293 293 294 294 293 291 291 290 291 291 290 289 289 287 287
286 288 291 292 291 290 289 288 286 279 279 286 289 281 278 284 288 290 291 289 290 291 291 291 292 292 291 291 291 291 291 291 291 291 290 290 290 290 291 291 292 292 293 294 295 295 295 295 295 295 295 296 297 297 297 298 297 297 296 296 295 295 294 295 295 296 296 297 298 299 298 297 298 298 297 296 296 296 296 295 295 294 293 292 292 292 292 292 292 291 291 290 290 291 287 287 288
285 287 291 290 290 290 288 288 286 283 283 285 289 286 281 280 284 292 290 289 288 289 290 290 290 290 290 290 290 290 290 290 289 289 289 289 289 289 289 290 291 292 292 293 293 294 294 294 294 294 295 295 295 296 296 296 296 296 295 295 295 295 294 295 296 297 297 296 296 297 297 297 296 297 297 295 295 295 294 295 294 294 293 291 292 292 292 291 291 291 291 291 290 290 289 288 288
286 290 291 289 290 288 287 287 283 282 282 279 283 286 281 278 282 289 289 287 286 287 288 288 289 289 289 289 290 289 289 289 289 288 288 288 288 288 289 289 290 290 291 291 292 292 293 294 294 294 294 294 295 295 295 295 295 294 294 294 294 294 294 295 295 296 296 296 295 295 295 295 296 295 296 296 294 294 294 294 293 293 293 293 290 292 291 291 290 290 290 290 290 289 288 288 287
291 291 291 289 289 289 288 284 284 281 280 275 281 285 278 279 284 287 287 286 286 286 287 288 288 288 288 288 289 289 289 289 289 288 288 288 288 288 288 288 288 289 290 291 291 291 292 292 292 293 293 294 294 294 294 294 294 294 293 293 292 292 293 294 294 294 294 294 294 294 294 294 293 294 294 294 294 293 293 293 293 293 293 293 292 291 289 290 290 289 290 290 290 290 289 288 288
292 290 288 284 284 284 282 282 281 279 274 279 284 285 284 277 282 285 285 285 288 287 287 287 287 287 287 287 287 288 288 287 288 288 287 287 287 287 288 287 287 288 289 289 290 290 290 290 291 291 291 293 293 293 293 293 293 293 292 292 292 291 292 292 292 292 292 293 292 293 293 293 293 292 292 294 293 293 292 292 292 293 292 292 292 291 290 290 290 290 290 289 289 290 290 289 289
289 285 282 284 283 279 281 278 278 274 272 277 281 284 285 276 277 284 286 288 290 289 286 286 286 286 286 286 286 286 286 286 286 286 286 286 286 286 286 286 286 286 287 288 288 289 289 289 289 289 290 291 291 292 292 292 292 292 292 291 291 291 291 291 291 290 291 291 291 291 292 292 292 292 292 291 292 292 292 291 291 291 291 291 292 292 292 291 290 289 288 288 289 289 289 289 289
286 282 283 280 273 276 271 274 272 272 274 277 281 282 281 282 284 286 286 287 288 289 288 287 286 285 285 285 285 285 285 285 285 284 285 285 285 285 285 285 285 285 285 286 287 287 287 287 287 288 288 289 290 290 290 290 291 291 291 291 291 291 291 290 290 290 290 290 290 290 290 290 291 291 291 291 292 292 291 292 292 291 292 292 292 291 291 290 290 289 289 288 288 288 289 289 288
284 284 279 276 273 271 267 269 272 272 275 280 283 284 280 282 284 286 285 286 287 287 287 287 286 285 285 285 285 285 284 284 284 284 284 284 284 284 284 285 285 284 284 285 286 286 286 286 286 286 286 288 289 289 289 289 289 289 290 290 290 291 290 290 290 290 290 290 290 289 289 289 289 289 290 290 291 291 291 291 291 291 291 290 290 290 290 290 290 290 289 288 288 288 288 288 288
285 284 285 281 277 273 271 272 271 273 274 278 280 278 275 277 280 284 285 285 286 286 286 285 285 284 284 284 284 283 283 283 283 283 283 283 284 284 284 284 285 285 285 285 285 285 285 285 285 285 285 286 287 288 288 288 288 288 289 289 289 289 290 290 289 290 289 289 289 289 289 289 289 289 289 290 290 290 290 291 291 290 290 289 289 289 291 290 289 290 289 289 288 288 287 287 287
284 284 285 280 281 282 278 278 274 271 275 275 275 277 276 280 285 285 285 285 285 285 285 285 284 284 284 283 283 283 283 283 283 282 283 283 283 283 284 284 284 285 285 285 285 285 285 284 284 284 285 285 286 286 287 287 287 288 288 288 288 288 289 289 288 289 289 289 288 288 288 288 288 288 289 289 289 289 289 289 289 290 290 289 289 288 288 288 288 288 288 287 287 288 287 286 286
283 286 280 283 284 286 278 277 278 276 276 276 276 280 281 284 285 284 284 284 283 284 284 283 284 283 282 283 283 283 283 282 282 282 282 283 282 283 284 284 285 285 285 286 286 286 286 286 286 285 286 286 286 286 286 287 287 287 287 287 288 288 288 287 288 287 288 288 288 288 288 288 288 288 288 289 289 288 288 288 288 289 289 289 288 288 287 286 286 286 287 286 286 287 286 285 286
284 281 283 284 288 286 282 273 272 274 273 274 280 275 277 278 272 282 282 281 282 282 282 283 283 282 282 283 283 283 283 283 283 283 283 283 284 283 283 284 283 284 284 285 285 285 285 286 286 285 285 286 286 287 287 287 287 286 286 286 286 287 287 287 288 287 287 287 287 288 288 287 287 288 288 288 288 287 287 287 287 287 287 288 288 287 287 287 286 287 286 286 286 286 285 285 285
287 283 287 284 277 278 279 275 270 270 269 268 273 280 278 279 280 280 280 281 282 282 282 282 282 282 282 282 283 284 284 284 284 283 283 283 283 284 284 284 286 286 286 286 287 287 286 285 285 285 285 285 285 287 287 287 287 287 286 286 286 286 286 286 286 286 286 286 286 287 287 287 287 287 287 286 286 286 286 286 286 286 287 287 287 287 287 287 286 286 286 286 286 285 285 285 285
289 288 285 283 281 278 275 278 273 275 270 274 271 277 273 281 280 282 282 282 283 282 281 282 283 284 285 285 285 284 284 284 284 285 284 284 285 285 284 284 285 286 286 287 288 287 285 285 285 285 285 284 284 285 285 285 285 285 285 285 285 286 286 286 285 284 284 284 285 285 285 285 286 286 286 286 286 286 286 285 286 286 286 286 286 287 287 287 287 287 287 286 286 285 285 285 285
282 282 281 283 281 282 281 278 276 275 271 273 274 273 277 279 285 284 284 284 284 283 283 283 284 285 284 283 284 284 284 284 285 285 286 286 286 284 284 283 283 283 283 284 284 284 284 283 283 284 283 283 283 284 285 285 285 284 284 282 282 283 283 285 285 285 284 284 285 285 284 284 284 283 284 284 285 285 285 286 286 286 286 286 286 286 286 286 286 286 286 286 286 286 285 285 285
284 283 279 282 279 278 277 276 283 277 277 272 274 274 276 283 289 286 285 285 285 285 285 286 286 286 285 286 285 285 284 284 284 284 284 284 283 283 282 282 283 284 284 283 284 284 283 283 283 283 281 281 283 282 283 283 284 285 284 284 283 283 283 283 283 283 283 283 283 284 284 284 283 283 283 283 283 284 284 285 285 285 285 285 285 286 286 286 286 286 286 287 286 286 285 285 285
Wind_Speed
6 7 6 6 1 1 3 2 2 3 2 1 3 1 1 1 0 3 3 2 2 1 1 1 0 3 0 1 3 2 3 1 5 2 2 2 1 4 6 5 7 10 11 9 10 11 11 15 17 17 17 17 17 17 16 15 16 14 14 14 14 14 14 13 13 12 11 11 10 10 9 9 9 8 8 8 8 8 8 8 8 8 10 11 10 11 9 12 12 11 10 10 10 9 10 9 8
5 4 6 4 2 4 1 1 2 2 3 4 3 1 0 1 4 2 3 3 2 1 1 1 1 1 3 3 2 0 3 9 3 2 1 1 2 2 5 5 9 11 10 10 10 10 10 12 17 17 17 18 17 17 16 16 16 15 15 14 14 14 14 14 14 12 12 11 11 10 10 9 8 9 8 8 9 9 8 8 8 10 10 11 11 11 9 11 11 10 9 9 9 9 9 8 8
4 5 6 6 2 1 2 2 1 1 2 2 2 1 1 6 3 1 3 3 4 3 2 1 0 1 1 4 1 3 1 1 4 1 1 0 3 5 5 4 7 9 10 8 9 10 9 11 16 17 19 18 18 17 17 16 16 15 15 15 15 14 14 13 13 13 12 11 11 10 10 9 9 9 10 9 9 9 9 9 9 9 10 11 10 10 11 10 8 8 8 8 7 7 8 8 7
3 1 1 3 2 3 2 2 3 2 1 3 1 4 1 2 1 4 3 4 4 3 1 0 1 1 1 1 2 1 2 0 1 4 1 3 6 4 6 5 7 8 8 8 9 9 8 12 16 17 18 18 18 17 17 16 16 16 15 15 15 14 14 14 13 13 12 11 11 11 10 10 10 11 11 11 12 11 11 10 10 9 10 10 10 10 11 9 7 6 6 6 6 6 7 7 7
3 2 3 1 2 2 1 1 1 2 1 1 2 1 0 2 1 2 1 2 3 4 1 1 1 1 1 1 0 1 1 1 1 1 2 2 0 6 6 5 6 9 8 8 9 8 7 13 16 17 18 20 19 19 17 16 16 16 15 14 14 14 13 14 13 13 12 12 11 11 11 11 12 12 12 12 12 13 12 10 8 8 9 9 9 9 7 6 6 6 5 4 5 5 6 6 6
3 2 0 3 0 2 3 1 2 1 8 2 1 1 1 1 3 0 3 2 2 1 3 1 1 0 1 1 3 0 2 1 3 1 3 4 4 6 6 5 5 8 8 8 9 7 7 13 15 16 18 19 19 19 18 16 17 16 14 15 15 14 13 13 13 13 12 12 11 11 11 11 12 13 13 13 13 12 12 10 8 8 5 6 7 6 6 5 4 4 4 3 4 4 5 5 6
2 4 1 2 1 2 3 1 4 3 8 5 2 1 1 1 2 3 5 2 0 1 1 1 1 1 1 2 1 1 2 1 2 2 4 5 6 6 5 5 4 7 9 9 8 8 9 13 14 15 16 17 17 18 17 17 19 16 15 15 15 14 13 13 13 13 12 12 11 11 12 12 13 13 14 13 13 12 11 9 8 7 7 8 4 5 3 4 3 2 2 2 3 4 4 5 5
0 2 1 3 1 2 1 2 3 4 4 2 4 3 0 2 2 2 2 1 2 1 1 1 2 3 6 3 1 2 5 4 1 3 5 7 7 6 6 5 4 6 9 8 8 7 11 14 13 14 15 16 15 15 16 17 18 17 16 16 15 14 14 13 13 13 12 12 11 12 12 13 14 14 14 13 12 12 11 10 9 8 6 6 6 3 2 0 2 1 1 3 4 4 4 4 5
2 1 1 5 1 1 1 4 4 3 3 1 1 3 5 4 3 2 0 1 2 0 1 1 3 2 2 5 2 3 1 0 3 4 6 7 8 7 6 6 5 7 7 8 8 8 10 15 14 14 14 14 14 14 17 17 16 16 16 16 16 15 15 13 13 11 11 12 11 12 13 14 15 14 14 13 11 11 11 10 8 8 7 6 5 4 3 2 2 2 3 4 5 5 4 4 4
1 2 1 1 2 2 2 6 2 2 2 2 1 2 4 1 1 1 0 3 2 1 2 4 3 1 1 4 5 1 1 3 3 3 4 6 8 7 6 7 5 7 7 6 7 8 9 15 16 14 13 14 14 14 17 16 15 15 15 14 15 15 14 14 12 10 10 10 10 13 14 15 15 15 14 12 12 11 11 9 8 8 6 6 7 8 5 3 2 3 4 4 5 5 4 4 4
2 2 2 2 3 1 1 6 3 5 3 3 3 2 4 3 3 1 1 3 1 1 0 1 1 2 1 3 2 1 0 3 4 5 5 5 6 7 7 5 6 7 7 5 7 7 8 11 17 16 13 13 13 13 14 14 14 14 14 13 13 13 13 13 12 11 11 11 12 14 15 15 15 14 13 12 12 11 10 9 8 8 5 4 4 3 3 3 4 4 4 4 5 4 4 4 4
2 2 2 0 1 1 3 3 7 7 8 2 1 2 1 4 2 1 2 3 3 2 2 2 1 2 0 1 2 1 2 1 4 4 3 4 5 5 5 4 5 6 7 7 7 7 8 8 10 13 15 13 12 12 13 13 13 13 13 13 12 12 12 12 12 12 13 12 12 13 15 16 15 14 12 12 11 11 11 9 7 6 5 5 4 4 5 4 5 4 5 5 4 4 4 4 4
1 1 2 1 2 1 3 3 5 2 3 1 1 1 0 3 1 0 1 1 3 4 2 2 0 2 2 1 2 1 1 2 1 4 3 4 5 4 4 3 4 6 7 8 8 8 9 9 9 9 10 13 12 12 12 12 12 13 12 13 12 12 12 11 11 12 12 13 12 13 14 13 12 12 12 13 11 11 10 9 8 7 7 7 7 6 6 6 5 6 6 5 5 4 4 4 5
1 0 1 2 0 2 1 3 3 2 3 1 1 1 1 1 1 2 1 3 5 1 2 4 0 2 3 1 3 2 5 4 2 4 2 2 3 2 4 3 3 4 6 8 8 8 9 9 9 8 8 8 7 10 12 12 12 13 13 12 12 11 11 12 12 12 12 13 12 11 12 11 10 13 12 11 11 9 9 9 8 8 8 8 8 8 7 7 6 7 6 6 5 5 5 5 5
1 0 1 1 4 2 2 0 3 2 1 2 2 1 1 3 1 2 3 1 6 3 0 0 2 3 3 2 4 4 7 7 5 2 2 2 3 3 2 4 3 2 4 7 7 8 9 8 9 8 8 7 8 7 7 10 14 13 13 13 12 12 12 12 11 12 12 12 12 10 9 10 11 12 11 11 10 10 9 9 8 8 9 9 8 8 8 7 7 6 7 7 6 6 5 5 6
1 2 2 1 2 0 6 1 0 2 1 1 2 2 1 2 0 1 3 4 2 2 0 3 1 3 3 2 8 8 6 8 5 4 4 4 2 2 3 3 4 3 2 4 7 7 8 9 8 8 8 9 8 8 8 8 11 14 14 14 13 13 13 12 11 11 11 11 10 10 9 8 9 10 13 10 11 11 10 7 8 7 9 9 9 8 8 8 8 7 8 8 7 7 6 6 6
2 4 1 1 4 1 4 0 3 3 4 1 2 0 2 1 3 0 0 1 3 6 3 3 4 1 5 7 11 4 5 5 6 5 4 3 3 3 1 1 3 3 2 4 5 7 8 10 10 8 8 9 9 9 9 9 10 13 12 14 14 14 13 12 11 11 10 9 8 8 9 6 5 6 8 7 10 7 10 10 9 8 8 7 8 9 9 9 9 8 8 9 8 8 8 7 6
3 1 3 1 5 1 4 1 1 2 1 4 5 1 4 4 5 3 2 3 1 5 7 4 4 6 7 9 3 3 5 8 5 7 5 5 3 4 5 4 4 7 6 6 5 6 8 9 11 11 9 11 10 9 7 8 8 11 9 9 9 10 11 10 9 7 7 5 8 7 5 5 5 5 6 7 6 7 8 11 9 8 7 7 7 8 10 10 10 9 9 10 10 8 8 3 3
2 1 2 6 3 6 1 2 5 5 6 5 4 2 3 2 1 2 2 3 3 6 7 3 8 7 8 9 1 6 7 5 7 6 8 8 8 9 8 6 6 4 6 7 7 8 7 7 9 10 11 11 10 9 8 8 9 8 8 9 8 9 8 8 7 7 6 6 5 6 6 6 6 6 6 7 6 9 8 10 10 9 7 8 8 8 9 10 10 9 10 10 10 9 4 3 3
3 4 4 6 5 3 7 4 7 4 2 3 3 2 4 5 2 1 2 5 4 6 9 6 7 12 5 6 1 4 6 7 5 7 8 9 9 10 7 8 8 8 9 9 10 8 7 8 9 10 11 11 11 9 8 8 8 8 7 7 7 7 7 7 7 7 6 7 7 6 6 6 6 6 8 11 9 6 7 10 11 10 7 9 10 7 9 9 11 10 10 11 7 4 4 3 3
2 3 4 4 4 2 5 4 7 9 4 5 4 3 5 4 2 1 5 7 7 8 8 9 14 15 9 7 4 5 6 6 8 7 8 9 9 7 9 11 11 11 11 9 6 8 9 9 8 8 9 10 11 9 9 8 7 7 7 7 7 7 7 7 6 7 7 7 7 7 7 6 6 6 6 6 6 6 5 5 5 5 4 5 8 5 5 5 5 5 5 5 4 4 3 3 3
3 8 6 7 3 4 7 6 8 4 4 5 5 7 6 2 4 1 1 6 12 8 9 8 12 14 11 9 7 4 6 9 10 9 11 12 12 11 8 6 6 7 5 7 10 9 10 10 9 8 7 9 11 10 10 9 9 9 8 8 8 7 7 7 7 7 7 8 7 7 7 7 7 7 6 6 6 6 6 6 6 5 5 5 5 6 6 5 4 5 5 4 4 3 3 3 3
4 3 4 6 6 5 1 3 5 4 6 5 4 4 1 2 7 3 5 10 14 11 9 10 11 13 12 6 4 5 5 7 9 11 12 12 10 10 10 9 9 9 8 10 9 9 10 9 10 9 9 9 11 10 9 8 8 9 9 9 9 8 7 8 7 7 8 8 7 7 8 7 7 7 7 7 7 7 7 6 6 6 6 6 6 7 6 6 6 6 5 4 3 3 2 3 3
6 7 2 8 6 7 6 7 7 5 3 5 4 4 4 2 11 1 3 11 14 15 11 11 13 11 9 10 8 8 9 10 10 11 13 14 14 13 12 11 10 7 7 9 8 9 9 12 12 10 10 9 9 10 10 9 8 9 9 9 9 9 9 8 8 8 7 8 8 8 8 7 8 7 7 7 7 6 7 7 7 6 6 6 6 6 7 6 6 6 5 4 3 3 2 4 3
3 5 3 3 2 4 4 4 5 6 9 7 5 7 10 5 8 5 10 13 16 16 12 10 12 10 9 9 11 10 10 9 8 8 6 8 8 10 7 7 6 5 6 8 9 9 11 12 12 12 10 10 8 8 9 9 8 8 8 9 9 8 8 8 8 7 7 7 7 8 7 8 7 7 8 7 7 7 7 7 7 7 7 6 6 6 7 7 6 6 6 5 4 4 4 4 4
0 2 3 3 4 4 5 7 9 10 9 6 5 11 9 8 6 9 15 16 16 13 8 9 8 8 9 10 11 10 9 9 8 6 9 8 6 6 8 9 7 6 11 9 6 9 8 10 11 13 13 12 10 7 7 7 8 8 9 9 9 8 8 8 7 7 7 7 7 7 8 8 8 8 7 6 8 7 7 7 7 7 8 7 7 8 7 7 7 6 6 6 5 5 5 4 5
1 3 3 4 5 5 3 4 12 13 6 8 5 10 11 3 4 9 3 11 10 7 9 8 6 7 9 8 8 6 6 7 8 6 5 5 5 7 10 6 6 11 7 7 8 9 9 9 10 11 11 10 9 10 8 8 7 8 7 7 7 8 7 7 7 7 7 7 8 7 7 7 7 7 7 8 6 7 7 8 8 7 7 8 7 7 6 7 7 8 7 7 7 7 6 5 5
2 2 5 8 8 8 10 10 15 9 6 7 7 11 11 4 3 12 14 12 7 7 12 13 10 9 8 6 6 6 5 7 7 5 7 7 7 8 8 8 9 8 7 8 8 7 6 9 11 10 11 10 9 9 8 8 8 8 6 6 6 6 6 7 7 7 7 7 7 7 7 7 7 7 8 7 7 7 7 7 7 7 7 7 7 7 7 6 7 6 7 6 5 5 6 4 4
4 3 5 8 7 7 12 9 11 2 6 2 6 1 3 2 5 13 14 10 7 8 12 14 12 9 6 4 4 5 6 8 7 9 10 9 9 7 6 5 5 7 6 6 3 3 6 7 8 9 9 7 9 9 8 7 5 4 6 6 6 5 6 6 7 7 7 7 7 8 8 7 7 7 7 8 7 7 6 7 7 7 7 7 7 7 7 6 6 6 6 5 6 5 5 5 4
5 4 2 7 6 6 17 6 9 8 4 6 7 3 7 10 13 12 13 7 7 5 8 9 9 7 4 4 5 5 7 11 14 10 10 10 11 11 12 11 8 7 6 3 2 2 3 3 4 4 5 7 8 7 5 5 4 4 4 4 4 5 5 6 5 6 6 6 6 7 7 7 7 6 7 6 7 7 7 7 7 7 7 6 6 7 7 7 7 7 7 7 6 7 7 6 6
3 3 2 4 4 6 11 2 3 1 1 6 7 5 6 8 9 9 9 6 5 10 11 11 11 8 5 5 5 6 13 11 12 13 14 14 12 12 12 13 13 13 10 5 2 4 3 4 4 4 5 5 5 4 5 5 4 4 5 4 4 4 5 5 4 5 5 6 6 6 6 6 5 6 6 7 7 7 7 7 7 7 6 6 7 7 7 7 7 7 7 7 6 6 6 6 6
2 3 4 2 6 7 10 10 3 5 1 2 2 3 8 8 9 10 10 8 6 8 11 11 9 6 9 6 8 11 10 10 13 15 14 15 15 13 14 14 13 13 12 11 9 3 3 3 3 3 2 3 4 3 3 4 4 3 4 4 5 4 5 5 5 5 5 5 5 6 5 5 5 5 5 6 7 6 7 7 7 6 6 7 7 6 6 8 7 6 6 7 8 6 6 6 5
2 5 3 5 2 5 5 6 2 1 3 1 3 6 2 5 8 10 11 8 6 8 12 12 12 10 8 9 9 8 11 13 14 15 15 13 13 13 13 15 14 12 13 13 11 8 8 7 7 5 4 3 3 3 3 3 3 3 4 4 3 4 5 4 4 4 5 5 5 6 5 6 5 5 5 5 6 6 6 6 6 6 5 6 7 7 7 7 7 7 6 6 7 7 8 7 5
5 2 6 5 5 3 3 7 7 1 1 1 1 4 6 6 6 9 11 12 12 10 10 9 8 8 7 10 10 11 11 12 14 13 14 13 11 13 13 13 13 14 13 14 12 10 8 8 8 8 7 6 3 3 3 4 3 4 4 4 4 4 3 3 4 5 4 5 5 6 5 5 5 5 5 5 5 5 5 5 4 5 5 6 6 6 7 6 6 7 7 6 7 8 8 9 8
4 3 4 5 3 4 6 4 2 6 2 5 6 6 8 9 10 10 11 11 8 8 4 7 8 5 9 10 11 11 12 13 12 10 11 12 13 12 12 12 13 13 11 13 14 13 11 9 9 10 9 8 7 6 6 6 6 6 6 5 5 4 3 3 4 4 5 6 5 5 5 6 6 5 5 5 6 6 5 5 5 5 5 6 6 6 5 6 6 6 9 8 5 7 9 8 8
6 6 6 4 5 5 7 6 3 3 6 8 5 7 8 7 9 10 14 10 5 7 5 5 5 10 10 11 10 10 10 12 9 10 11 12 12 13 12 11 11 11 12 13 15 14 13 12 10 11 9 7 6 7 6 7 7 7 6 5 7 6 4 4 4 2 2 4 4 5 5 5 5 6 5 5 5 6 6 6 6 5 6 6 7 7 7 7 10 9 9 10 8 4 3 6 6
6 3 3 6 6 6 4 4 6 1 3 5 7 4 3 6 9 14 17 8 6 7 5 5 8 9 10 9 10 10 12 10 6 9 12 13 14 13 12 11 11 14 14 14 15 15 14 12 13 12 9 10 8 7 7 7 6 4 4 5 2 3 4 4 5 4 2 1 3 3 4 5 5 5 5 6 7 7 7 6 6 6 6 7 7 9 8 8 6 6 6 4 8 6 5 4 6
5 5 4 6 4 8 3 5 5 3 1 2 3 4 6 8 11 17 16 8 10 5 5 8 10 11 9 10 10 10 8 5 8 13 14 14 14 14 12 12 13 16 14 14 14 13 12 13 12 11 10 10 10 7 7 7 5 2 4 2 2 3 4 3 2 3 3 3 2 1 1 2 4 4 5 5 5 6 6 6 6 7 7 7 8 6 5 5 5 5 4 4 4 8 7 7 8
4 4 2 3 7 2 6 6 1 1 3 6 4 5 8 10 12 18 11 6 4 5 7 5 11 10 9 9 9 8 10 10 12 12 13 14 14 13 11 11 12 11 12 13 12 14 13 11 10 10 10 9 9 9 8 6 6 7 6 4 4 3 3 2 3 2 2 2 3 1 1 2 3 3 4 4 4 4 5 6 6 6 7 7 7 6 6 7 7 8 7 8 6 4 4 4 9
4 5 4 8 3 2 6 5 4 4 1 4 4 8 8 7 13 13 8 7 5 9 13 12 10 12 11 10 8 9 10 11 13 12 13 13 12 11 12 12 11 12 13 13 13 12 10 10 10 10 10 10 9 9 8 5 4 4 4 5 4 6 3 3 4 5 5 3 3 2 1 1 2 3 2 3 3 3 4 5 5 5 6 6 8 8 7 9 8 7 7 8 7 6 5 7 8
2 3 4 5 4 4 7 5 3 3 5 1 3 3 5 6 13 6 6 5 11 7 12 11 10 11 9 9 12 10 11 10 11 12 11 11 12 12 11 10 9 12 12 12 11 10 8 10 10 9 9 9 9 10 10 9 10 9 8 7 6 5 5 7 6 5 3 2 1 1 0 0 1 2 2 3 4 4 4 4 4 4 5 6 6 7 8 9 9 10 11 9 9 10 9 5 7
3 4 8 8 5 6 4 2 3 6 5 2 4 6 3 6 8 10 3 4 8 4 10 9 9 8 8 12 10 8 9 9 11 10 9 8 9 9 10 11 12 11 12 10 9 10 10 10 11 10 10 10 10 10 9 8 8 8 8 8 8 6 6 7 7 4 6 3 2 1 1 0 0 0 1 2 3 3 4 4 4 3 4 4 5 6 7 6 7 8 8 9 10 9 9 6 6
1 7 4 7 6 3 0 2 3 1 1 2 3 0 9 2 4 6 2 7 7 4 7 8 8 8 9 9 7 8 8 9 9 9 8 10 9 10 11 12 11 12 10 7 9 10 11 10 10 10 10 10 10 10 11 9 9 8 7 7 6 6 6 4 3 3 5 5 1 1 1 1 0 1 2 2 2 3 3 3 3 4 4 4 4 5 5 6 7 8 7 7 9 8 5 8 10
4 2 2 3 2 1 1 0 2 6 1 4 2 4 8 5 4 12 6 8 6 6 6 7 7 8 9 9 8 7 7 8 8 8 9 8 9 9 10 9 9 9 7 8 9 9 11 11 11 11 10 11 11 10 11 10 9 8 9 8 7 7 6 5 6 6 6 6 4 3 2 3 2 2 2 2 2 2 3 4 3 3 3 4 4 5 7 6 6 5 6 7 7 7 8 9 8
4 1 3 1 1 1 1 0 2 2 2 7 5 3 1 5 7 1 11 8 3 5 5 5 6 7 8 8 8 7 6 7 8 8 8 8 8 8 7 9 6 8 9 9 9 8 8 10 11 12 13 12 11 12 11 12 10 9 8 8 9 7 7 7 6 7 8 7 8 8 6 4 3 3 2 3 3 2 3 4 4 4 4 4 4 5 5 5 6 7 6 7 7 8 7 7 6
3 2 2 3 1 1 1 1 0 3 1 6 5 5 4 8 7 3 1 5 7 6 6 5 5 6 6 7 5 5 4 6 7 8 6 7 6 7 6 6 9 8 7 7 7 8 9 10 13 14 13 11 10 12 12 12 11 10 11 10 10 9 8 8 8 9 8 8 8 8 8 8 7 5 4 3 3 3 3 3 3 4 5 5 4 4 4 5 5 6 7 7 8 9 7 8 10
2 4 2 4 5 2 1 2 2 2 2 7 8 8 7 5 4 4 9 7 7 9 6 5 6 7 6 6 5 3 4 5 6 7 6 6 5 5 6 10 8 8 8 9 9 9 9 10 11 14 11 10 11 11 12 13 12 12 11 10 11 10 10 8 9 10 9 9 9 8 8 7 7 7 6 6 4 4 3 3 3 4 4 4 4 4 5 6 6 6 6 6 6 8 8 8 8
3 2 2 5 6 4 2 2 3 1 6 6 6 7 9 6 4 3 3 1 13 15 15 10 8 7 5 4 3 3 4 4 5 5 6 4 5 7 8 10 9 8 9 10 9 9 10 9 10 13 12 11 10 10 12 12 11 12 11 11 12 11 10 9 10 10 9 9 8 9 8 8 8 7 8 8 7 6 5 4 3 3 4 4 5 5 5 5 6 5 5 5 6 6 7 8 8
3 3 3 1 5 4 2 2 1 5 7 3 1 3 1 9 4 1 6 7 5 4 8 12 11 8 6 4 4 2 3 4 4 4 5 6 7 8 9 8 9 9 7 7 8 8 8 10 10 12 11 9 9 10 11 11 12 12 11 11 10 9 10 10 9 9 9 8 8 9 9 9 8 9 9 9 9 9 7 6 5 5 4 5 5 4 5 5 5 5 5 5 6 6 7 8 8
6 4 4 3 1 1 3 5 2 3 6 5 0 0 3 3 2 5 4 5 6 11 9 8 9 8 7 5 3 3 3 4 4 4 5 5 5 5 6 6 6 6 7 8 9 9 7 8 8 9 8 8 7 9 10 11 11 10 10 10 9 8 9 9 9 9 8 8 7 8 8 8 8 8 8 8 8 8 8 7 5 5 4 4 4 4 5 5 5 6 5 6 6 7 6 7 9
9 4 9 8 6 2 4 3 5 5 5 2 4 2 5 2 1 2 4 4 8 8 9 7 6 4 4 4 4 3 4 3 3 4 4 5 5 5 5 5 5 5 7 8 8 8 8 9 8 9 9 10 9 8 8 9 8 8 8 8 8 8 8 8 8 7 8 9 8 8 8 7 7 7 8 7 9 8 8 9 9 6 5 4 4 4 5 5 5 5 5 7 7 6 6 7 7
2 3 4 3 6 3 6 3 2 3 3 4 2 4 2 2 2 3 3 5 7 6 7 7 6 4 4 4 3 3 3 3 3 4 5 5 4 4 4 4 5 5 6 7 8 7 8 6 6 7 6 6 8 8 7 7 7 7 8 9 8 7 6 5 6 7 7 6 7 7 8 8 7 7 8 9 9 8 8 8 8 8 7 6 5 4 5 4 5 5 7 6 7 5 7 7 7
1 4 4 5 2 3 1 4 1 1 1 8 2 4 1 0 1 3 2 6 5 4 4 5 5 4 3 3 3 3 3 3 3 4 4 4 3 3 3 4 5 6 6 6 6 6 7 8 9 10 9 8 8 6 6 6 6 8 9 8 8 8 8 8 7 7 6 6 5 6 6 7 7 7 8 7 9 9 8 8 7 8 8 7 7 6 6 5 5 5 6 6 7 7 6 7 7
5 2 6 1 1 2 2 4 2 3 7 7 3 5 4 3 5 3 1 5 3 3 4 3 4 3 4 3 3 3 3 3 3 3 3 3 3 3 4 4 4 4 4 5 6 4 5 6 7 8 9 11 10 10 9 9 8 8 8 8 7 7 7 6 6 6 4 4 4 4 4 6 6 6 6 7 7 9 9 9 8 8 7 7 7 6 6 6 6 6 6 6 7 6 7 7 6
3 3 1 1 4 3 2 4 3 3 4 5 3 7 6 7 7 5 6 8 6 5 4 4 3 3 4 3 3 3 3 2 3 3 3 3 3 4 4 4 4 4 3 3 4 4 5 4 5 4 5 5 5 6 7 8 8 7 7 8 8 7 6 5 5 5 5 5 6 6 5 5 5 6 6 7 7 8 8 8 7 7 8 8 7 7 6 6 6 7 7 7 6 5 6 7 7
2 2 1 1 2 4 3 5 4 3 6 4 4 5 6 4 3 10 10 9 11 8 7 7 8 6 6 5 5 4 4 3 3 3 3 3 4 3 2 3 3 3 3 3 3 3 4 4 4 4 4 5 6 7 7 8 7 6 7 6 7 7 8 8 7 5 5 3 3 3 4 5 6 5 5 5 5 6 7 7 7 7 7 7 7 7 7 6 6 6 6 7 8 6 7 8 8
1 1 2 1 0 3 2 2 3 3 3 4 6 7 5 3 2 8 11 12 11 10 9 5 6 6 5 5 5 4 3 3 3 3 2 3 2 1 0 0 1 2 2 2 1 1 0 1 1 1 1 1 2 2 2 3 2 3 3 3 4 4 5 4 5 6 6 7 7 7 6 4 4 4 3 6 6 7 7 6 7 7 6 7 7 8 6 6 6 7 7 6 7 7 8 8 7
1 3 4 5 1 4 6 9 1 1 2 4 5 11 4 3 3 5 10 9 8 7 9 9 8 8 7 5 5 4 4 3 3 3 3 2 2 2 2 1 0 1 2 1 2 1 2 1 1 0 1 1 0 2 1 2 3 2 2 3 3 2 2 3 2 3 3 4 4 5 6 7 8 8 6 7 6 5 5 7 6 7 6 6 7 7 7 6 6 6 7 6 6 7 8 8 7
Wind_Direction
323 318 304 292 263 287 46 4 57 309 59 261 290 26 227 14 160 53 35 354 34 262 188 311 338 13 156 202 186 193 206 148 209 121 218 232 328 195 175 184 140 145 153 160 164 168 171 170 167 167 167 169 168 168 167 167 164 162 161 165 164 165 163 161 161 161 160 158 162 162 163 163 161 155 157 150 143 138 129 127 122 124 125 124 121 115 115 100 89 83 82 83 84 83 82 80 73
302 322 314 321 296 62 299 115 106 358 33 8 277 98 256 324 47 121 118 130 198 199 232 178 276 235 311 234 194 309 299 206 171 191 218 281 5 135 211 179 149 152 154 159 163 167 170 172 168 168 167 169 171 170 167 169 167 164 164 168 168 169 168 166 165 165 166 170 170 172 168 165 162 155 154 150 146 141 134 131 131 129 129 126 124 128 119 98 89 83 80 78 76 77 78 76 70
321 355 341 5 40 75 281 47 22 104 73 22 279 229 324 44 96 132 159 160 186 205 193 292 243 32 320 32 359 127 259 284 91 43 108 325 105 236 220 176 151 146 150 159 162 168 171 173 169 168 168 169 171 172 170 171 168 166 167 171 172 173 172 169 169 170 172 178 175 174 169 167 163 153 145 146 139 134 129 127 123 128 132 126 125 117 104 93 95 94 82 75 71 70 72 72 70
323 279 68 42 349 23 54 24 106 138 353 214 318 310 41 146 62 147 173 186 185 128 65 40 77 243 130 1 212 163 248 13 191 153 121 223 202 205 185 171 150 139 144 158 167 168 171 176 170 170 169 169 173 172 172 173 168 168 169 174 175 176 176 173 173 175 179 182 180 177 171 168 160 151 149 145 140 134 123 121 127 131 127 126 118 111 96 95 95 96 87 78 68 65 66 67 63
344 314 124 68 99 357 85 211 156 100 308 211 129 267 311 99 70 42 268 193 184 125 119 169 61 303 194 223 222 148 233 245 3 111 143 221 215 160 169 174 140 139 153 160 164 170 176 176 174 171 170 173 173 172 171 171 172 170 171 174 178 179 180 180 178 180 183 184 183 179 174 172 162 154 152 146 136 130 125 123 123 123 124 127 123 108 104 103 94 94 90 81 68 64 64 64 60
315 357 356 103 133 174 44 26 337 289 229 162 96 245 194 171 103 46 318 24 192 132 163 84 173 290 346 232 186 136 186 58 181 62 144 216 164 160 169 163 139 143 155 161 166 165 176 181 177 175 173 174 175 173 171 172 173 173 173 175 181 182 185 185 184 186 186 187 185 182 173 175 166 154 153 147 131 125 124 121 108 99 110 142 130 120 118 112 118 104 110 81 71 70 67 62 63
320 25 2 22 349 63 166 134 250 208 275 167 179 185 113 103 111 68 334 52 319 58 21 170 63 29 14 288 332 248 348 264 102 193 165 170 149 159 165 162 133 151 156 162 166 167 171 180 182 179 174 176 177 174 173 174 175 173 174 178 182 186 187 190 190 191 190 190 187 181 176 174 164 160 156 141 129 127 122 119 106 95 84 60 69 150 151 166 154 158 113 124 107 80 70 66 58
99 96 301 89 290 48 331 205 262 161 277 164 188 112 139 100 114 70 297 61 298 129 268 16 83 114 252 327 229 277 3 13 114 96 129 124 144 160 166 165 147 169 155 162 167 162 170 177 185 183 177 178 179 176 175 177 178 174 174 178 184 188 190 193 195 195 194 192 187 182 172 172 165 165 159 147 142 138 134 132 133 128 112 105 78 87 130 304 147 145 131 127 112 94 88 79 71
347 90 341 67 6 10 9 287 254 251 261 310 4 113 104 119 94 118 337 241 339 114 140 179 151 72 266 2 230 271 345 357 89 111 131 136 148 166 167 176 161 178 163 158 167 159 168 178 183 185 181 181 179 177 180 180 183 178 177 180 182 189 191 194 197 199 196 194 187 184 173 169 166 161 151 151 148 143 143 144 144 141 142 146 146 136 156 164 147 163 151 155 118 106 93 83 75
358 93 319 127 125 325 324 303 22 260 303 263 134 161 100 80 22 73 170 334 228 80 234 197 151 166 275 313 307 312 220 169 119 99 159 159 158 161 167 190 171 163 180 140 162 163 169 177 179 183 183 184 181 182 182 183 182 180 181 184 184 186 189 190 196 199 193 188 182 177 171 172 166 160 159 157 153 151 152 156 161 157 164 191 177 170 180 173 170 168 155 151 118 109 98 89 88
359 0 147 62 29 355 310 280 259 313 288 309 28 11 111 100 99 350 324 270 318 270 302 93 27 252 71 268 217 275 71 138 127 178 205 171 159 164 170 196 173 162 167 147 153 162 168 177 179 180 181 185 185 183 184 184 185 184 183 186 189 188 187 187 190 191 183 175 181 175 172 173 170 167 163 160 157 158 158 162 175 175 194 151 76 108 128 167 174 169 160 137 116 110 106 101 92
14 4 8 113 264 181 244 288 304 299 325 7 69 299 306 104 68 30 341 23 319 357 232 136 273 155 229 289 287 280 146 200 234 216 226 176 161 178 177 187 160 172 154 149 145 155 163 170 180 181 178 183 185 184 185 186 186 186 185 187 191 189 188 190 188 182 176 172 174 172 174 177 173 171 166 159 160 156 154 156 161 166 157 154 156 144 140 158 171 154 141 127 118 121 115 103 90
97 100 65 80 241 324 271 337 271 330 342 339 185 286 305 66 130 208 300 324 336 12 359 207 248 63 302 231 259 299 233 250 257 165 197 163 181 179 180 168 157 167 147 147 148 158 160 167 174 180 182 180 181 183 184 186 186 186 186 187 193 189 189 189 181 177 172 169 173 172 176 174 174 170 163 157 153 153 152 152 156 158 154 155 157 156 155 158 162 155 149 127 131 128 118 106 94
101 301 108 295 18 306 289 261 302 8 305 261 269 285 310 113 240 161 100 326 292 22 229 211 141 139 253 331 312 264 242 227 188 182 182 198 189 143 173 173 156 163 150 150 157 160 164 168 172 174 177 179 178 182 185 184 184 183 185 188 190 188 186 183 177 175 172 171 175 178 177 172 166 162 159 156 154 150 150 150 152 159 161 161 158 162 162 160 162 155 139 134 137 130 118 103 89
31 148 86 130 309 24 259 122 227 169 295 219 242 177 13 257 164 128 184 212 275 212 271 309 189 92 259 161 285 235 223 192 187 158 98 134 154 139 109 184 187 147 175 148 158 161 169 169 172 174 178 176 177 179 182 186 183 181 181 186 186 184 183 181 179 175 174 174 178 173 169 166 162 158 155 154 151 149 146 143 150 163 166 167 164 167 165 164 163 161 142 141 136 127 112 94 85
147 78 83 50 278 69 280 195 338 58 272 250 316 131 77 311 192 120 251 174 250 299 40 267 344 204 235 230 244 229 215 156 171 115 103 110 96 134 82 174 189 197 213 177 159 171 167 171 174 179 181 183 179 179 181 182 186 182 181 184 185 182 181 180 179 178 176 176 171 163 161 160 162 154 154 153 151 148 143 142 151 160 170 169 171 171 163 171 163 165 149 144 136 124 106 91 84
54 80 34 38 295 134 263 118 31 310 265 300 288 22 38 298 306 260 308 17 290 270 280 221 210 260 240 238 244 206 128 126 113 109 108 121 116 170 102 109 188 228 247 227 183 175 172 173 177 178 188 187 183 179 182 183 185 183 182 183 184 180 177 178 178 176 174 173 162 159 152 146 147 148 151 151 149 146 147 146 147 157 168 167 172 174 169 172 167 170 154 145 135 111 91 79 74
59 88 119 281 208 214 236 283 310 241 334 295 331 345 63 0 341 294 11 318 272 287 290 268 276 253 240 257 9 107 134 136 146 140 162 174 163 183 205 216 188 207 211 226 226 196 178 183 181 183 184 190 187 184 186 183 179 181 181 182 184 182 178 174 173 169 169 164 157 152 151 148 147 149 148 146 148 149 148 149 149 154 166 164 165 169 172 170 171 171 159 146 125 115 105 83 59
118 164 112 217 197 233 206 281 307 10 313 291 306 25 66 277 26 280 316 282 285 298 276 286 283 264 285 291 268 125 142 155 166 177 171 182 189 194 201 199 210 217 228 226 228 213 199 186 186 185 186 186 187 188 189 185 179 180 181 180 181 182 179 174 170 166 164 162 162 158 155 156 154 153 152 156 155 157 154 153 156 157 164 158 161 162 163 168 170 171 164 138 130 122 111 124 122
237 134 231 242 215 253 301 293 293 296 266 326 349 304 9 271 326 312 278 276 314 267 280 300 273 276 255 279 120 154 168 179 190 192 197 203 200 201 196 201 208 211 213 208 208 209 203 198 191 189 186 184 184 189 189 188 184 179 181 182 180 179 178 178 174 170 168 166 167 164 161 161 159 156 160 155 148 151 156 155 160 163 156 158 154 150 160 160 172 174 160 137 125 123 137 148 130
265 102 193 230 228 256 265 291 305 306 346 312 314 304 335 305 264 345 286 320 269 256 241 239 270 278 270 247 224 171 187 195 209 216 223 224 221 213 206 200 198 204 207 205 206 211 208 204 196 193 186 183 186 188 187 189 184 180 186 184 181 179 180 178 177 175 172 171 170 168 167 161 161 159 156 155 154 150 150 154 155 151 142 154 145 139 136 151 146 121 117 117 142 141 134 161 128
124 204 204 207 286 280 259 274 296 303 293 338 323 334 279 297 316 213 283 272 276 249 251 238 250 265 270 273 273 171 197 209 211 216 226 226 218 218 221 228 225 210 192 188 205 208 208 205 201 196 184 189 189 188 191 185 177 187 188 187 183 185 182 184 178 177 176 176 172 172 166 163 161 160 160 160 157 156 155 157 156 146 145 156 146 142 137 123 121 126 131 145 177 164 157 179 175
247 275 240 217 221 240 270 284 281 306 295 283 304 254 315 0 284 225 232 241 262 255 247 248 253 263 269 277 277 270 234 214 218 219 223 232 234 229 219 214 202 207 195 208 199 204 202 202 204 198 194 187 192 189 188 180 187 188 185 183 184 192 186 182 185 180 180 174 174 172 168 172 166 159 166 165 163 161 161 161 158 156 158 158 160 143 145 139 138 144 146 169 190 200 190 192 182
210 245 247 252 229 239 272 293 333 324 276 266 248 338 311 331 297 157 218 255 258 269 261 257 261 268 279 287 275 257 258 254 236 218 221 223 221 221 214 209 213 204 188 207 202 198 191 201 201 196 203 193 192 189 187 188 186 183 184 181 189 187 182 189 187 188 176 174 176 178 174 171 169 166 169 168 167 162 165 164 160 159 159 165 162 151 147 147 146 150 156 174 195 225 178 178 163
213 267 236 266 327 283 328 294 294 292 282 262 310 295 272 232 249 307 268 271 273 271 270 267 267 272 276 273 269 259 256 262 262 249 240 245 232 230 225 224 218 195 212 213 203 189 197 197 193 197 199 202 196 190 192 192 184 183 180 184 191 180 187 188 188 181 179 178 179 176 174 175 175 170 172 174 158 169 163 165 165 167 164 167 160 165 157 158 159 161 168 183 194 204 190 163 145
250 264 6 303 296 299 297 314 294 279 279 276 307 273 270 246 274 272 262 269 264 273 294 277 276 274 267 261 258 256 258 259 265 277 248 237 238 223 236 219 206 198 216 205 192 208 199 194 192 194 193 195 195 186 196 189 191 186 188 188 188 179 190 185 178 183 182 175 183 182 182 175 177 174 171 169 168 170 168 167 169 170 172 170 169 170 174 162 167 167 173 182 181 189 178 178 147
296 353 328 297 273 306 282 279 286 275 271 269 243 275 274 264 158 281 215 242 269 303 292 287 276 266 259 260 268 261 251 256 253 259 300 259 218 206 229 218 198 218 204 198 203 205 195 184 196 195 195 192 188 193 192 192 186 195 189 188 185 189 181 175 181 182 181 184 183 180 180 176 171 169 170 171 175 166 170 171 178 169 172 182 177 171 171 172 168 173 176 178 177 179 179 171 159
4 358 339 322 315 310 289 283 274 290 286 237 205 246 266 271 174 245 269 269 270 298 292 290 290 281 275 270 282 307 314 291 290 293 268 276 251 212 226 206 217 223 195 214 207 195 172 190 194 194 192 189 187 197 193 194 190 193 185 177 187 187 172 178 181 181 184 185 178 175 177 177 172 172 168 172 174 171 173 176 174 176 185 179 183 173 171 174 171 173 171 169 169 167 167 168 168
298 326 320 295 318 322 281 263 267 211 254 197 167 109 309 268 225 242 251 272 309 288 284 287 288 282 286 311 322 309 288 281 313 345 340 333 334 333 291 280 247 217 230 225 211 156 183 192 189 197 191 186 190 193 195 199 187 178 177 186 177 171 177 171 177 183 183 180 176 174 178 177 176 169 175 171 173 172 170 173 179 188 182 178 182 175 164 166 160 160 169 159 156 157 156 174 163
349 334 223 315 327 315 275 273 254 259 247 150 137 260 249 247 244 258 266 282 284 291 274 277 284 290 314 345 324 299 325 6 31 32 28 25 30 35 35 12 15 360 344 354 52 200 210 170 189 177 185 185 194 193 179 178 178 168 165 170 162 161 169 170 176 176 172 172 174 177 176 174 174 170 165 172 169 171 173 179 181 188 183 178 171 165 169 169 166 163 170 159 168 165 174 177 164
262 279 80 222 324 273 279 223 291 74 261 167 141 208 272 259 272 270 279 279 280 295 292 287 288 304 331 312 307 352 39 50 38 33 26 24 24 30 32 27 21 15 6 360 205 220 173 166 156 173 183 184 177 179 174 174 161 151 153 156 157 160 160 163 158 158 161 167 166 173 171 168 172 167 167 164 175 173 176 182 186 188 174 170 169 176 164 171 163 174 163 168 167 170 176 176 173
263 4 294 312 181 272 291 299 222 223 225 7 98 275 232 250 261 270 275 284 304 293 286 290 301 323 316 338 21 55 58 44 43 37 32 28 26 27 29 23 20 24 20 7 350 29 56 56 79 98 111 134 168 161 146 150 155 146 135 143 147 150 151 154 154 156 155 151 154 159 163 163 166 167 167 164 168 180 181 186 191 173 174 166 169 166 161 171 175 168 182 163 163 183 172 186 177
302 187 259 271 200 246 341 290 358 20 108 343 177 239 316 307 262 265 270 286 289 283 286 297 313 315 314 38 61 54 48 40 39 34 33 36 31 29 26 22 21 23 26 25 22 23 39 34 44 63 87 98 115 98 97 114 124 125 128 137 144 138 142 145 143 133 136 141 144 150 154 161 166 160 164 169 168 182 187 189 183 176 167 167 166 171 174 171 166 170 181 187 173 171 180 177 184
285 211 220 214 242 289 265 301 322 112 68 260 278 248 233 253 289 286 291 285 282 275 283 303 292 287 26 70 64 58 52 44 38 27 27 34 34 33 31 29 27 26 27 28 30 41 41 43 42 41 36 36 61 90 88 87 88 85 81 85 91 103 114 125 128 131 136 140 143 150 156 160 167 165 163 167 174 181 182 181 173 174 170 168 171 172 183 162 165 163 179 201 185 165 180 179 185
228 256 256 295 275 242 248 286 265 351 325 317 295 262 265 264 271 270 254 250 258 276 301 283 298 12 79 76 72 62 58 52 37 27 27 30 34 30 30 29 30 30 32 31 34 33 38 33 43 38 37 33 30 37 44 51 55 57 55 60 62 70 83 100 125 132 145 144 151 159 164 162 172 171 165 165 172 172 171 172 175 179 173 172 167 175 174 172 170 178 179 195 208 196 179 185 175
225 225 234 241 258 278 271 259 288 314 300 290 261 257 287 302 293 293 287 288 310 295 292 314 19 79 82 80 69 64 62 55 40 34 31 32 33 31 30 30 33 34 34 33 37 39 39 35 32 31 27 32 42 40 39 42 45 38 41 26 39 20 30 44 31 76 114 131 144 162 168 171 173 174 174 169 173 172 173 181 182 174 177 168 175 180 189 184 188 187 195 184 190 214 201 166 144
243 265 277 258 254 271 278 275 269 13 339 247 254 291 302 292 294 289 283 312 314 300 331 60 86 88 82 76 73 67 58 54 37 43 39 35 32 29 30 30 29 36 32 33 38 36 39 41 44 36 24 31 37 35 37 44 36 20 30 38 39 9 25 21 39 18 44 87 146 156 170 175 178 181 182 171 182 181 186 178 175 181 177 180 186 196 192 200 203 196 187 185 178 183 204 179 170
229 236 242 270 232 276 271 293 290 349 145 287 330 351 307 292 292 284 290 319 314 324 104 105 91 85 80 76 71 64 70 61 44 41 36 37 31 29 30 30 27 34 25 33 39 38 38 38 40 38 33 34 34 37 43 47 37 75 86 25 69 31 20 26 9 1 21 23 50 109 156 172 184 193 193 187 186 184 184 181 184 187 178 191 197 190 189 196 191 193 169 197 215 187 199 184 176
271 241 230 318 276 240 289 277 2 334 358 267 303 323 291 289 284 280 290 329 21 39 92 88 96 84 78 72 70 69 59 52 48 48 42 39 36 32 32 32 32 32 32 34 32 39 37 36 34 36 36 39 32 30 40 45 50 42 60 36 47 57 43 56 69 348 34 62 45 44 114 155 182 209 207 199 194 198 194 187 194 186 187 185 184 192 190 197 197 194 185 191 203 243 210 198 185
252 288 292 261 259 6 298 293 335 336 59 283 295 295 285 281 270 273 333 88 74 69 78 74 73 83 78 69 69 69 62 54 51 44 42 38 39 35 32 33 30 34 34 31 28 33 36 35 34 36 35 35 32 29 38 33 73 97 74 73 56 84 85 24 36 25 16 24 17 14 51 130 176 208 219 220 226 217 204 202 197 187 197 189 190 192 193 203 197 195 194 206 179 194 211 212 209
284 197 222 249 273 236 196 261 319 298 320 61 7 309 294 242 259 295 65 76 87 72 84 78 74 79 84 81 65 57 65 61 60 51 43 41 40 35 32 31 35 42 39 37 31 29 32 32 33 39 42 38 34 31 32 36 30 25 15 20 30 16 4 22 18 350 357 358 341 1 319 89 162 207 221 225 225 228 226 227 208 207 199 200 194 199 199 204 200 199 197 197 190 195 212 213 219
296 229 209 221 209 244 272 324 32 17 330 328 56 342 307 249 243 270 143 67 69 42 78 70 69 69 71 67 66 63 59 53 62 58 52 47 48 40 33 32 37 40 40 36 35 35 33 31 29 30 35 35 34 33 34 44 49 49 41 42 32 24 18 13 9 336 325 309 247 286 348 23 111 293 265 248 250 249 241 235 225 207 218 210 205 210 210 207 211 206 204 199 204 213 203 190 215
103 269 206 214 210 202 201 337 49 341 207 270 87 132 276 274 252 256 134 101 80 61 66 74 69 67 67 69 65 63 61 55 47 50 48 49 39 40 37 34 29 38 33 29 39 41 41 38 34 35 34 32 28 31 34 38 45 46 54 60 58 49 32 0 340 344 332 299 280 290 287 313 234 189 269 272 264 257 260 260 244 229 220 218 221 219 222 217 215 213 206 206 213 212 184 201 208
233 251 96 107 111 220 215 133 172 242 247 298 295 176 251 292 273 245 116 108 113 85 77 72 73 70 67 69 62 54 56 65 62 46 38 44 52 51 44 32 32 28 24 32 38 37 41 40 43 41 40 36 31 29 35 34 45 40 42 41 45 37 31 10 358 355 11 6 353 310 294 271 281 230 228 258 256 266 267 274 264 256 239 231 212 218 223 226 226 232 217 218 217 212 207 212 212
215 242 107 96 116 161 142 191 218 227 348 292 260 194 277 256 255 273 130 110 127 118 101 91 84 80 77 74 64 62 54 63 73 65 43 31 34 45 54 46 27 29 29 35 35 36 39 41 46 46 43 38 32 33 36 34 39 40 43 38 36 24 22 16 1 15 17 7 24 4 348 313 304 287 264 244 246 235 242 250 269 273 264 256 222 236 236 232 225 222 221 221 218 224 216 222 213
263 196 88 86 75 117 196 184 17 332 48 268 227 195 209 280 268 6 217 119 166 158 120 98 87 79 81 75 60 58 56 49 57 71 61 42 33 38 40 53 44 32 26 32 40 40 40 39 42 45 41 36 32 35 37 38 37 37 39 35 36 23 18 13 20 16 11 9 17 11 5 360 336 317 298 286 275 255 240 240 249 255 258 260 253 240 248 249 245 235 226 221 220 224 221 217 223
100 71 55 3 23 342 21 91 106 47 276 245 212 212 177 277 275 208 143 210 163 132 112 110 99 85 71 64 68 50 52 60 53 51 47 48 35 40 40 52 42 34 29 31 33 35 38 39 41 48 41 38 33 34 37 38 37 36 37 33 33 29 21 24 22 16 9 11 9 1 5 353 3 346 329 317 310 300 289 262 242 247 255 268 270 265 246 239 245 240 237 232 227 224 224 227 232
115 68 107 24 331 17 39 348 43 128 266 261 235 206 191 190 282 341 319 21 147 152 150 146 123 104 91 81 71 66 61 56 52 52 49 39 39 37 40 44 39 33 32 31 30 32 36 36 37 46 38 34 33 33 38 38 39 37 37 35 34 29 28 27 25 18 10 10 4 2 356 4 2 360 5 351 333 324 310 292 273 278 272 267 266 257 262 252 252 252 252 240 238 234 236 233 234
82 67 46 303 281 30 325 34 299 207 219 250 290 135 60 240 221 344 17 15 40 70 121 133 124 119 114 108 106 83 74 74 64 56 52 39 38 32 33 35 33 30 29 29 32 34 34 36 36 44 37 28 32 34 41 40 41 36 33 33 33 30 32 33 29 25 16 14 8 7 8 7 0 6 359 359 353 340 326 305 289 265 262 256 258 274 271 271 265 259 254 253 245 239 232 230 233
118 159 144 110 261 211 239 255 213 302 296 253 309 33 233 246 321 32 54 47 65 90 92 101 119 128 132 130 112 90 68 65 63 64 56 55 44 35 36 37 38 32 27 29 32 35 33 38 34 44 37 29 29 38 40 45 43 41 38 37 33 29 30 29 29 27 19 19 14 13 12 7 4 1 352 357 342 344 350 333 299 280 261 266 267 266 271 274 272 264 261 260 255 247 241 238 238
196 142 153 184 156 156 261 212 231 237 225 275 280 47 236 145 231 32 74 70 82 89 102 106 102 113 125 121 107 88 75 53 70 70 63 50 43 40 39 32 34 34 30 30 32 29 32 32 31 35 34 26 30 31 36 43 43 43 45 44 42 36 31 29 27 25 19 16 11 13 10 7 11 357 355 344 348 353 348 347 349 323 293 278 272 274 276 279 277 274 267 260 264 258 251 243 246
227 166 98 81 238 168 234 209 205 250 320 313 290 200 201 122 103 86 60 80 75 81 98 108 112 111 114 98 100 103 92 87 67 69 58 48 45 38 35 35 29 28 27 28 29 28 31 31 35 40 42 32 31 31 32 35 38 39 42 44 43 45 44 41 37 28 21 17 10 11 5 6 3 358 355 354 350 352 348 349 348 347 335 320 303 286 279 277 278 279 277 275 269 267 261 257 251
256 100 200 209 183 111 342 340 240 88 354 251 164 305 12 89 93 66 77 81 73 86 99 111 122 127 118 127 128 116 110 96 83 72 71 60 47 34 41 39 31 26 25 25 29 26 28 23 24 25 27 33 35 36 37 37 36 39 34 34 33 36 38 36 32 24 18 8 7 3 6 360 359 6 358 354 347 348 346 347 345 342 342 337 328 318 306 294 284 277 273 273 273 270 262 260 260
85 131 238 246 107 110 146 213 315 221 222 262 239 220 273 147 289 148 142 103 132 135 137 138 130 131 136 161 161 161 147 149 139 132 120 106 81 53 38 38 42 36 26 16 10 18 26 28 24 25 19 19 12 14 19 22 26 33 33 31 31 32 31 33 31 21 11 10 6 4 354 5 5 355 358 347 347 346 344 346 344 339 336 336 330 322 318 309 306 291 275 267 262 270 272 273 263
170 188 228 123 266 301 306 91 268 262 247 276 272 251 248 224 232 140 204 160 172 175 170 150 155 184 180 186 195 203 198 160 145 139 122 98 73 55 41 40 29 36 29 28 21 30 34 22 22 30 25 17 10 10 13 11 17 16 15 17 20 22 27 30 24 17 8 11 5 359 0 352 348 356 355 353 346 341 340 338 340 337 335 333 329 324 320 316 311 305 295 287 280 270 266 267 266
43 58 11 226 107 180 213 199 190 171 274 255 280 214 252 221 206 183 178 177 169 170 173 188 188 187 186 186 190 194 191 183 155 128 121 112 93 86 78 55 33 10 360 356 357 24 40 34 26 19 14 10 6 2 3 1 356 3 1 5 6 11 7 8 8 12 9 12 350 346 344 354 349 347 344 340 332 330 331 332 332 334 332 332 330 325 324 318 314 298 293 293 284 283 277 270 271
3 41 303 343 284 221 121 290 167 190 196 219 260 266 273 272 219 161 174 175 178 168 172 183 199 205 199 193 188 195 195 174 158 138 122 113 119 118 311 256 284 307 319 331 19 28 342 45 30 49 73 349 20 337 346 320 324 319 344 336 335 349 350 348 350 353 354 344 347 346 353 352 336 347 335 332 328 323 318 317 320 325 330 329 330 327 325 321 316 308 299 286 286 282 276 274 273
137 171 212 179 173 286 265 264 148 129 202 232 227 254 273 279 4 166 157 171 160 173 169 189 203 200 193 193 197 188 189 186 165 171 152 161 191 213 240 274 288 351 331 335 315 351 344 332 248 308 12 323 40 325 298 315 311 302 300 281 268 279 277 290 303 296 304 311 315 323 332 348 348 336 350 334 324 310 299 301 309 311 318 322 322 323 322 324 313 307 300 294 286 280 275 272 270